Location: Chaumontel
(49.1247°N, 2.4324°E)
Time: 00:06:40
(UTC+00:00)

IRIDIUM 103 - Pass Details

Date: 19 May 2025
Orbit: 775 x 779 km, 86.4° (Epoch: 12 June)

Event Time Altitude Azimuth Distance (km) Brightness Sun altitude
Exits shadow 00:54:42 33° 164° (SSE) 1,299 5.0 -19.4°
Maximum altitude 00:57:04 69° 90° (E) 834 4.5 -19.3°
Drops below altitude 10° 01:02:17 10° 8° (N) 2,343 8.0 -19.1°
Sets 01:04:39 0° 6° (N) 3,275 9.1 -18.9°
